{"data":{"norad_id":67806,"epoch":"2026-09-18T19:16:39.410688Z","epoch_age_seconds":213070,"freshness":"STALE","line1":"1 67806U 26032K   26261.80323392  .00017284  00000+0  53630-3 0  9998","line2":"2 67806  97.2873  88.2106 0002216  87.3299 272.8197 15.33453356 34550","mean_motion":15.33453356,"eccentricity":0.0002216,"inclination_deg":97.2873,"raan_deg":88.2106,"arg_perigee_deg":87.3299,"mean_anomaly_deg":272.8197,"bstar":0.0005363,"rev_number":3455,"period_min":93.905692948902,"perigee_km":464.00175899661,"apogee_km":467.03486703134,"semimajor_km":6843.655313014,"source":"CELESTRAK","updated_at":"2026-09-20T09:00:43.663561Z"}}